Location: Melbourne
(37.8170°S, 144.9670°E)
Time: 04:09:22
(UTC+10:00)

ERBS - Visible Passes

Search period start: 22 September 2014 00:00
Search period end: 02 October 2014 00:00
Orbit: 464 x 490 km, 57.0° (Epoch: 20 September)

Date Brightness Start Highest point End Pass type
(mag) Time Alt. Az. Time Alt. Az. Time Alt. Az.
22 Sep 5.2 03:47:42 15° ENE 03:47:42 15° ENE 03:48:28 10° ENE visible
22 Sep 4.4 05:21:58 13° WNW 05:22:01 13° WNW 05:23:50 10° NNW visible
22 Sep 3.7 18:59:17 10° N 19:02:25 25° ENE 19:05:08 12° ESE visible
22 Sep 4.5 20:36:28 10° WNW 20:39:24 30° WSW 20:39:24 30° WSW visible
23 Sep 4.0 20:07:40 10° WNW 20:11:14 37° SW 20:13:12 22° SSE visible
24 Sep 3.7 19:38:54 10° WNW 19:42:34 44° SW 19:46:15 10° SSE visible
25 Sep 3.4 19:10:09 10° WNW 19:13:53 53° SW 19:17:39 10° SSE visible
26 Sep 3.1 18:41:26 10° NW 18:45:12 65° SW 18:49:01 10° SE visible
26 Sep 5.7 20:22:19 10° SW 20:23:29 11° SSW 20:24:39 10° S visible
27 Sep 5.6 19:52:59 10° WSW 19:54:42 13° SSW 19:56:24 10° S visible
28 Sep 5.5 19:23:48 10° WSW 19:25:54 14° SSW 19:28:01 10° S visible
29 Sep 5.4 18:54:40 10° WSW 18:57:06 16° SSW 18:59:32 10° S visible
